Regional Weather Roundup
Issued by NWS

Home | Current Version | Previous Version | Text Only | Print | Product List | Glossary On
Versions: 1 2 3 4 5 6 7 8 9 10 11 12 13 14 15 16 17 18 19 20 21 22 23 24 25 26 27 28 29 30 31 32 33 34 35 36 37 38 39 40 41 42 43 44 45 46 47 48 49 50
000
ASUS45 KCYS 282110
RWRWY

WYOMING REGIONAL WEATHER ROUNDUP
NATIONAL WEATHER SERVICE CHEYENNE WY
300 PM MDT THU MAY 28 2015

NOTE:  "FAIR" INDICATES FEW OR NO CLOUDS BELOW 12,000 FEET
WITH NO SIGNIFICANT WEATHER AND/OR OBSTRUCTIONS TO VISIBILITY.

WYZ001-282200-
YELLOWSTONE NATIONAL PARK

CITY           SKY/WX    TMP DP  RH WIND       PRES   REMARKS
LK YELLOWSTONE   N/A     41  38  89 VRB3      30.22S
W YELLOWSTONE  NOT AVBL

$$
WYZ002>013-054>058-071-098>099-282200-
NORTHERN WYOMING

CITY           SKY/WX    TMP DP  RH WIND       PRES   REMARKS
JACKSON        MOSUNNY   54  39  58 CALM      30.15S
CODY           CLOUDY    57  45  62 N10       30.08S
GREYBULL       FAIR      65  43  44 NW3       30.02F
WORLAND        PTSUNNY   60  45  57 N8        30.04S
SHERIDAN       FAIR      63  46  54 NW18      30.03F
BUFFALO        PTSUNNY   59  43  55 CALM      30.07S
GILLETTE       FAIR      61  48  62 W9        30.01F
HULETT         LGT RAIN  61  54  77 S6        29.99S
NEWCASTLE      FAIR      61  46  59 NW20      30.00R

$$
WYZ014>020-022>026-101>103-282200-
CENTRAL WYOMING

CITY           SKY/WX    TMP DP  RH WIND       PRES   REMARKS
BIG PINEY      RAIN      46  39  76 W9G21     30.19F
PINEDALE       FAIR      50  36  57 W8        30.18F
DUBOIS         FAIR      50  34  53 W17G23    30.12F
LANDER         FAIR      64  40  41 E6        30.02F
RIVERTON       LGT RAIN  56  43  61 N12       30.05S
CASPER         LGT RAIN  58  48  69 N16       30.02R
DOUGLAS        FAIR      68  43  40 NW14      29.98F

$$
WYZ021-027>030-104>119-282200-
SOUTHERN WYOMING

CITY           SKY/WX    TMP DP  RH WIND       PRES   REMARKS
EVANSTON       PTSUNNY   51  36  56 NW20G25   30.19R
KEMMERER       MOCLDY    52  36  54 W22G31    30.21R
FORT BRIDGER   TSTM      48  43  81 N3        30.24S
ROCK SPRINGS   LGT RAIN  46  38  73 NW16      30.20R
DIXON          LGT RAIN  50  42  76 N14G26    30.22S
RAWLINS        PTSUNNY   61  37  41 W18G28    30.12R
SARATOGA       FAIR      55  32  41 SW21G26   30.15R
LARAMIE        FAIR      61  34  36 W14       30.10F
CHEYENNE       PTSUNNY   66  37  34 NW13G23   30.03F
TORRINGTON     FAIR      72  43  35 W7        29.94F
PINE BLUFFS    FAIR      64  50  59 N9        30.02F

$$


USA.gov is the U.S. government's official web portal to all federal, state and local government web resources and services.